Date,TemperatureHighF,TemperatureAvgF,TemperatureLowF,DewpointHighF,DewpointAvgF,DewpointLowF,HumidityHigh,HumidityAvg,HumidityLow,PressureMaxIn,PressureMinIn,WindSpeedMaxMPH,WindSpeedAvgMPH,GustSpeedMaxMPH,PrecipitationSumIn
2013-3-1,44,34,23,-100,-100,-100,0,0,100,0.00,40.00,3,-89,16,0.02
2013-3-2,53,37,20,-100,-100,-100,0,0,100,44.89,40.00,5,-83,13,0.01
2013-3-3,43,38,32,-100,-100,-100,0,0,100,0.00,40.00,5,-127,18,0.01
2013-3-4,43,33,24,-100,-100,-100,0,0,100,44.89,40.00,7,3,19,0.00
2013-3-5,45,29,15,-100,-100,-100,0,0,100,44.89,40.00,5,-156,14,0.01
2013-3-6,43,35,31,-100,-100,-100,0,0,100,0.00,40.00,7,-46,25,0.01
2013-3-7,41,34,30,-100,-100,-100,0,0,100,44.89,40.00,6,-275,21,0.00
2013-3-8,31,25,15,-100,-100,-100,0,0,100,0.00,40.00,7,-98,24,0.05
2013-3-9,31,22,16,-100,-100,-100,0,0,100,44.89,40.00,7,-37,20,0.02
2013-3-10,36,27,17,-100,-100,-100,0,0,100,44.89,40.00,5,-197,18,0.01
2013-3-11,48,34,16,-100,-100,-100,0,0,100,0.00,40.00,3,-152,9,0.01
2013-3-12,47,33,21,-100,-100,-100,0,0,100,0.00,40.00,2,-73,8,0.00
2013-3-13,52,36,24,-100,-100,-100,0,0,100,44.89,40.00,2,-258,8,0.00
2013-3-14,57,40,25,-100,-100,-100,0,0,100,44.89,40.00,2,-78,7,0.00
2013-3-15,56,44,31,-100,-100,-100,0,0,100,0.00,40.00,5,-39,14,0.00
2013-3-16,51,42,35,-100,-100,-100,0,0,100,0.00,40.00,4,2,14,0.00
2013-3-17,47,40,35,-100,-100,-100,0,0,100,0.00,40.00,4,-215,18,0.00
2013-3-18,47,40,34,-100,-100,-100,0,0,100,0.00,40.00,5,4,19,0.00
2013-3-19,43,37,27,-100,-100,-100,0,0,100,44.89,40.00,3,-58,16,0.00
2013-3-20,44,38,30,-100,-100,-100,0,0,100,44.89,40.00,5,-37,17,0.01
2013-3-21,48,40,33,-100,-100,-100,0,0,100,44.89,40.00,5,-209,18,0.00
2013-3-22,44,36,27,-100,-100,-100,0,0,100,0.00,40.00,6,-43,25,0.00
2013-3-23,35,29,23,-100,-100,-100,0,0,100,44.89,40.00,6,-197,26,0.00
2013-3-24,40,30,22,-100,-100,-100,0,0,100,44.89,40.00,4,-319,16,0.00
2013-3-25,46,35,22,-100,-100,-100,0,0,100,44.89,40.00,3,-37,14,0.00
2013-3-26,45,38,33,-100,-100,-100,0,0,100,0.00,40.00,4,-39,15,0.01
2013-3-27,47,39,35,-100,-100,-100,0,0,100,44.89,40.00,5,-264,16,0.00
2013-3-28,48,40,34,-100,-100,-100,0,0,100,44.89,40.00,6,-237,17,0.00
2013-3-29,49,40,29,-100,-100,-100,0,0,100,0.00,40.00,2,-230,9,0.00
2013-3-30,49,39,30,-100,-100,-100,0,0,100,0.00,40.00,3,-184,10,0.00
2013-3-31,51,40,29,-100,-100,-100,0,0,100,0.00,40.00,3,-295,13,0.00